QTR8240 EBLG-LIMC

Flight info

Callsign QTR8240
Flight time 1h 7m
Altitude 31000
Route LNO N852 SUTAL DCT GTQ DCT POGOL DCT LASAT DCT DEVDI DCT BASGO/N0480F290 Z424 AKASU/N0409F190 Z424 RIXUV
Aircraft B77L/H-SDE1E3FGHIJ1J3J4J5M1P2RWXYZ/LB1D1G1

Departure

Time 2026-04-24 20:52
Airport Liège Airport (EBLG)

Arrival

Time 2026-04-24 21:59
Airport Milan Malpensa International Airport (LIMC)
Time Latitude Longitude Altitude Speed Heading
2026-04-24 20:10 50.63517 5.42813 646 ft 0 kts 340°
2026-04-24 20:41 50.63501 5.42822 645 ft 4 kts 343°
2026-04-24 20:41 50.63475 5.42833 646 ft 4 kts 351°
2026-04-24 20:42 50.63448 5.42837 647 ft 4 kts
2026-04-24 20:42 50.63422 5.42831 645 ft 4 kts 25°
2026-04-24 20:42 50.63405 5.42810 648 ft 1 kts 70°
2026-04-24 20:42 50.63405 5.42808 648 ft 0 kts 70°
2026-04-24 20:46 50.63406 5.42814 649 ft 2 kts 70°
2026-04-24 20:46 50.63414 5.42846 645 ft 4 kts 70°
2026-04-24 20:46 50.63423 5.42887 646 ft 4 kts 70°
2026-04-24 20:47 50.63430 5.42930 647 ft 4 kts 86°
2026-04-24 20:47 50.63421 5.42971 648 ft 4 kts 124°
2026-04-24 20:47 50.63395 5.42988 643 ft 4 kts 176°
2026-04-24 20:47 50.63367 5.42974 647 ft 4 kts 201°
2026-04-24 20:48 50.63339 5.42956 646 ft 5 kts 202°
2026-04-24 20:48 50.63304 5.42931 647 ft 6 kts 205°
2026-04-24 20:48 50.63261 5.42899 651 ft 7 kts 205°
2026-04-24 20:48 50.63214 5.42884 644 ft 7 kts 174°
2026-04-24 20:49 50.63169 5.42913 651 ft 7 kts 155°
2026-04-24 20:49 50.63122 5.42937 648 ft 7 kts 165°
2026-04-24 20:49 50.63073 5.42950 649 ft 7 kts 173°
2026-04-24 20:49 50.63025 5.42965 659 ft 7 kts 163°
2026-04-24 20:50 50.62979 5.42997 662 ft 8 kts 150°
2026-04-24 20:50 50.62928 5.43061 666 ft 5 kts 131°
2026-04-24 20:50 50.62926 5.43119 665 ft 7 kts 64°
2026-04-24 20:50 50.62962 5.43178 663 ft 8 kts 45°
2026-04-24 20:51 50.63034 5.43290 659 ft 34 kts 45°
2026-04-24 20:51 50.63389 5.43851 647 ft 109 kts 45°
2026-04-24 20:51 50.64082 5.44949 620 ft 170 kts 45°
2026-04-24 20:51 50.64956 5.46331 1062 ft 178 kts 44°
2026-04-24 20:52 50.65834 5.47734 1726 ft 181 kts 45°
2026-04-24 20:52 50.66711 5.49129 2451 ft 179 kts 45°
2026-04-24 20:52 50.67591 5.50546 2987 ft 184 kts 45°
2026-04-24 20:52 50.68492 5.52003 3534 ft 187 kts 46°
2026-04-24 20:53 50.69402 5.53457 4026 ft 193 kts 45°
2026-04-24 20:53 50.70411 5.55056 4242 ft 216 kts 44°
2026-04-24 20:53 50.71509 5.56758 4702 ft 224 kts 39°
2026-04-24 20:53 50.72922 5.57857 5146 ft 233 kts
2026-04-24 20:54 50.74484 5.57395 5821 ft 230 kts 330°
2026-04-24 20:54 50.75623 5.55617 6369 ft 238 kts 296°
2026-04-24 20:54 50.76175 5.53146 6904 ft 241 kts 287°
2026-04-24 20:54 50.76598 5.50581 7561 ft 241 kts 285°
2026-04-24 20:55 50.77022 5.48017 8217 ft 242 kts 286°
2026-04-24 20:55 50.77458 5.45469 8837 ft 245 kts 287°
2026-04-24 20:55 50.77848 5.42833 9334 ft 251 kts 273°
2026-04-24 20:55 50.77405 5.40181 9844 ft 257 kts 236°
2026-04-24 20:56 50.76063 5.38334 10399 ft 261 kts 206°
2026-04-24 20:56 50.74303 5.37615 10942 ft 265 kts 181°
2026-04-24 20:56 50.72484 5.38078 11505 ft 268 kts 156°
2026-04-24 20:56 50.70841 5.39496 12016 ft 275 kts 148°
2026-04-24 20:57 50.69148 5.41170 12229 ft 300 kts 147°
2026-04-24 20:57 50.67319 5.43010 12436 ft 325 kts 147°
2026-04-24 20:57 50.65340 5.45000 12663 ft 351 kts 147°
2026-04-24 20:57 50.63232 5.47106 12868 ft 376 kts 148°
2026-04-24 20:58 50.60970 5.49350 13366 ft 391 kts 148°
2026-04-24 20:58 50.58636 5.51648 14093 ft 400 kts 148°
2026-04-24 20:58 50.56260 5.53974 14869 ft 404 kts 148°
2026-04-24 20:58 50.53860 5.56315 15699 ft 408 kts 149°
2026-04-24 20:59 50.51435 5.58674 16510 ft 412 kts 149°
2026-04-24 20:59 50.48985 5.61051 17263 ft 417 kts 149°
2026-04-24 20:59 50.46503 5.63456 18043 ft 421 kts 149°
2026-04-24 20:59 50.44032 5.65848 18749 ft 426 kts 150°
2026-04-24 21:00 50.41500 5.68295 19408 ft 430 kts 150°
2026-04-24 21:00 50.38943 5.70764 20085 ft 433 kts 150°
2026-04-24 21:00 50.36369 5.73246 20759 ft 436 kts 151°
2026-04-24 21:00 50.33773 5.75746 21418 ft 440 kts 151°
2026-04-24 21:01 50.31156 5.78263 22066 ft 444 kts 151°
2026-04-24 21:01 50.28510 5.80805 22708 ft 448 kts 152°
2026-04-24 21:01 50.25845 5.83362 23337 ft 451 kts 152°
2026-04-24 21:01 50.23163 5.85932 23998 ft 453 kts 152°
2026-04-24 21:02 50.20466 5.88514 24538 ft 456 kts 152°
2026-04-24 21:02 50.17785 5.91077 25029 ft 460 kts 152°
2026-04-24 21:02 50.15043 5.93696 25538 ft 464 kts 152°
2026-04-24 21:02 50.12278 5.96331 26032 ft 468 kts 152°
2026-04-24 21:03 50.09473 5.98980 26225 ft 475 kts 153°
2026-04-24 21:03 50.06553 6.01336 26210 ft 471 kts 159°
2026-04-24 21:03 50.03517 6.03154 26194 ft 465 kts 164°
2026-04-24 21:03 50.00471 6.04789 26199 ft 462 kts 163°
2026-04-24 21:04 49.97456 6.06485 26196 ft 461 kts 162°
2026-04-24 21:04 49.94454 6.08214 26202 ft 460 kts 162°
2026-04-24 21:04 49.91496 6.09917 26196 ft 460 kts 162°
2026-04-24 21:04 49.88494 6.11636 26198 ft 460 kts 162°
2026-04-24 21:05 49.85499 6.13379 26198 ft 461 kts 161°
2026-04-24 21:05 49.82549 6.15348 26188 ft 462 kts 159°
2026-04-24 21:05 49.79609 6.17369 26183 ft 463 kts 159°
2026-04-24 21:05 49.76668 6.19393 26187 ft 463 kts 159°
2026-04-24 21:06 49.73718 6.21412 26188 ft 463 kts 159°
2026-04-24 21:06 49.70807 6.23392 26186 ft 463 kts 159°
2026-04-24 21:06 49.67858 6.25391 26182 ft 463 kts 159°
2026-04-24 21:06 49.64904 6.27386 26187 ft 463 kts 159°
2026-04-24 21:07 49.61949 6.29364 26192 ft 463 kts 159°
2026-04-24 21:07 49.58983 6.31293 26184 ft 463 kts 160°
2026-04-24 21:07 49.56013 6.33200 26173 ft 463 kts 160°
2026-04-24 21:07 49.53043 6.35106 26178 ft 462 kts 160°
2026-04-24 21:08 49.50085 6.37012 26177 ft 461 kts 160°
2026-04-24 21:08 49.47168 6.38894 26185 ft 460 kts 160°
2026-04-24 21:08 49.44223 6.40828 26235 ft 462 kts 159°
2026-04-24 21:08 49.41271 6.42828 26697 ft 465 kts 159°
2026-04-24 21:09 49.38309 6.44854 27288 ft 466 kts 159°
2026-04-24 21:09 49.35341 6.46885 27851 ft 468 kts 159°
2026-04-24 21:09 49.32357 6.48918 28378 ft 470 kts 159°
2026-04-24 21:09 49.29369 6.50946 28934 ft 471 kts 159°
2026-04-24 21:10 49.26365 6.52977 29370 ft 474 kts 159°
2026-04-24 21:10 49.23338 6.55017 29769 ft 477 kts 159°
2026-04-24 21:10 49.20337 6.57038 30222 ft 478 kts 159°
2026-04-24 21:10 49.17299 6.59081 30735 ft 476 kts 159°
2026-04-24 21:11 49.14277 6.61112 31270 ft 473 kts 159°
2026-04-24 21:11 49.11270 6.63130 31752 ft 472 kts 159°
2026-04-24 21:11 49.08271 6.65145 32264 ft 470 kts 159°
2026-04-24 21:11 49.05290 6.67176 32748 ft 468 kts 159°
2026-04-24 21:12 49.02322 6.69212 33166 ft 468 kts 159°
2026-04-24 21:12 49.00356 6.70563 33431 ft 468 kts 159°
2026-04-24 21:12 48.96429 6.73260 33969 ft 467 kts 159°
2026-04-24 21:12 48.93470 6.75287 34347 ft 466 kts 159°
2026-04-24 21:13 48.90512 6.77307 34680 ft 466 kts 159°
2026-04-24 21:13 48.87554 6.79323 34990 ft 466 kts 159°
2026-04-24 21:13 48.84586 6.81341 35098 ft 470 kts 159°
2026-04-24 21:13 48.81604 6.83365 35147 ft 469 kts 159°
2026-04-24 21:14 48.75715 6.87359 35148 ft 464 kts 159°
2026-04-24 21:14 48.69841 6.91332 35153 ft 462 kts 159°
2026-04-24 21:15 48.63981 6.95283 35153 ft 461 kts 159°
2026-04-24 21:15 48.58117 6.99226 35148 ft 461 kts 159°
2026-04-24 21:16 48.52242 7.03168 35157 ft 463 kts 159°
2026-04-24 21:16 48.46387 7.07086 35147 ft 464 kts 159°
2026-04-24 21:17 48.40471 7.11035 35154 ft 465 kts 159°
2026-04-24 21:17 48.35550 7.14312 35146 ft 466 kts 159°
2026-04-24 21:18 48.28618 7.18917 35147 ft 466 kts 159°
2026-04-24 21:18 48.22728 7.22820 35150 ft 466 kts 159°
2026-04-24 21:19 48.16802 7.26737 35162 ft 465 kts 159°
2026-04-24 21:19 48.10885 7.30638 35146 ft 465 kts 159°
2026-04-24 21:20 48.02004 7.36472 35156 ft 465 kts 159°
2026-04-24 21:21 47.96122 7.40325 35149 ft 465 kts 159°
2026-04-24 21:21 47.90197 7.44197 35146 ft 465 kts 159°
2026-04-24 21:22 47.84269 7.48061 35141 ft 465 kts 159°
2026-04-24 21:22 47.78336 7.51921 35130 ft 465 kts 159°
2026-04-24 21:23 47.72440 7.55744 35130 ft 465 kts 159°
2026-04-24 21:23 47.66503 7.59589 35120 ft 466 kts 159°
2026-04-24 21:24 47.60554 7.63435 35135 ft 467 kts 159°
2026-04-24 21:24 47.54590 7.67283 35127 ft 468 kts 159°
2026-04-24 21:25 47.48649 7.71106 35132 ft 469 kts 159°
2026-04-24 21:25 47.42660 7.74951 35137 ft 469 kts 159°
2026-04-24 21:26 47.36664 7.78791 35136 ft 470 kts 159°
2026-04-24 21:26 47.30662 7.82624 35137 ft 470 kts 159°
2026-04-24 21:27 47.24702 7.86423 35144 ft 470 kts 159°
2026-04-24 21:27 47.18699 7.90238 35149 ft 470 kts 159°
2026-04-24 21:28 47.12698 7.94043 35146 ft 469 kts 159°
2026-04-24 21:28 47.06703 7.97834 35145 ft 469 kts 159°
2026-04-24 21:29 47.00707 8.01618 35154 ft 469 kts 159°
2026-04-24 21:29 46.97749 8.03481 34966 ft 472 kts 159°
2026-04-24 21:29 46.94691 8.05401 34158 ft 482 kts 159°
2026-04-24 21:29 46.91612 8.07334 33314 ft 481 kts 159°
2026-04-24 21:30 46.88554 8.09254 32747 ft 475 kts 158°
2026-04-24 21:30 46.85536 8.11148 32178 ft 469 kts 158°
2026-04-24 21:30 46.82552 8.13017 31643 ft 464 kts 158°
2026-04-24 21:30 46.79599 8.14864 31148 ft 459 kts 158°
2026-04-24 21:31 46.76679 8.16687 30632 ft 455 kts 158°
2026-04-24 21:31 46.73821 8.18469 30130 ft 451 kts 158°
2026-04-24 21:31 46.70948 8.20258 29534 ft 447 kts 158°
2026-04-24 21:31 46.68098 8.22032 28996 ft 443 kts 158°
2026-04-24 21:32 46.65280 8.23783 28484 ft 438 kts 157°
2026-04-24 21:32 46.62487 8.25518 27963 ft 434 kts 157°
2026-04-24 21:32 46.59719 8.27233 27460 ft 431 kts 157°
2026-04-24 21:32 46.56973 8.28934 26954 ft 427 kts 157°
2026-04-24 21:33 46.54249 8.30619 26483 ft 424 kts 157°
2026-04-24 21:33 46.52457 8.31727 26157 ft 422 kts 157°
2026-04-24 21:33 46.48892 8.33928 25504 ft 418 kts 157°
2026-04-24 21:33 46.46223 8.35575 25045 ft 416 kts 157°
2026-04-24 21:34 46.43570 8.37209 24562 ft 413 kts 157°
2026-04-24 21:34 46.40930 8.38834 24072 ft 411 kts 157°
2026-04-24 21:34 46.38301 8.40452 23579 ft 410 kts 157°
2026-04-24 21:34 46.35678 8.42064 23051 ft 408 kts 157°
2026-04-24 21:35 46.33077 8.43660 22572 ft 405 kts 156°
2026-04-24 21:35 46.30492 8.45242 22076 ft 402 kts 156°
2026-04-24 21:35 46.27870 8.46595 21637 ft 399 kts 163°
2026-04-24 21:35 46.25176 8.47506 21191 ft 397 kts 169°
2026-04-24 21:36 46.22479 8.47983 20738 ft 394 kts 174°
2026-04-24 21:36 46.19751 8.48339 20286 ft 392 kts 174°
2026-04-24 21:36 46.17037 8.48715 19839 ft 391 kts 174°
2026-04-24 21:36 46.14336 8.49107 19401 ft 389 kts 173°
2026-04-24 21:37 46.11662 8.49637 18966 ft 387 kts 168°
2026-04-24 21:37 46.09058 8.50590 18534 ft 386 kts 161°
2026-04-24 21:37 46.06547 8.51926 18052 ft 384 kts 159°
2026-04-24 21:37 46.04051 8.53303 17576 ft 383 kts 159°
2026-04-24 21:38 46.01565 8.54664 17128 ft 381 kts 159°
2026-04-24 21:38 45.99089 8.56009 16679 ft 380 kts 159°
2026-04-24 21:38 45.96653 8.57324 16246 ft 378 kts 159°
2026-04-24 21:38 45.94196 8.58643 15810 ft 376 kts 159°
2026-04-24 21:39 45.91748 8.59955 15377 ft 375 kts 159°
2026-04-24 21:39 45.89363 8.61391 14934 ft 367 kts 149°
2026-04-24 21:39 45.87322 8.63567 14537 ft 365 kts 139°
2026-04-24 21:39 45.85397 8.65942 14108 ft 365 kts 140°
2026-04-24 21:40 45.83455 8.68278 13664 ft 364 kts 140°
2026-04-24 21:40 45.81495 8.70576 13189 ft 364 kts 140°
2026-04-24 21:40 45.79553 8.72819 12759 ft 363 kts 141°
2026-04-24 21:40 45.77585 8.75081 12332 ft 362 kts 141°
2026-04-24 21:41 45.75582 8.77248 11951 ft 359 kts 147°
2026-04-24 21:41 45.73440 8.78978 11832 ft 349 kts 152°
2026-04-24 21:41 45.71296 8.80519 11682 ft 341 kts 153°
2026-04-24 21:41 45.69204 8.82027 11558 ft 333 kts 152°
2026-04-24 21:42 45.67177 8.83539 11422 ft 325 kts 152°
2026-04-24 21:42 45.65207 8.85039 11286 ft 317 kts 152°
2026-04-24 21:42 45.63286 8.86511 11154 ft 309 kts 152°
2026-04-24 21:42 45.61414 8.87845 10959 ft 301 kts 161°
2026-04-24 21:43 45.59410 8.88547 10776 ft 294 kts 170°
2026-04-24 21:43 45.57380 8.89010 10451 ft 294 kts 171°
2026-04-24 21:43 45.55361 8.89484 10118 ft 293 kts 170°
2026-04-24 21:43 45.53381 8.89990 9894 ft 285 kts 170°
2026-04-24 21:44 45.51418 8.90512 9351 ft 289 kts 169°
2026-04-24 21:44 45.49473 8.91036 9152 ft 280 kts 169°
2026-04-24 21:44 45.47567 8.91553 8636 ft 283 kts 169°
2026-04-24 21:44 45.45599 8.92088 8068 ft 289 kts 169°
2026-04-24 21:45 45.43675 8.92611 7856 ft 281 kts 169°
2026-04-24 21:45 45.41784 8.93124 7642 ft 273 kts 169°
2026-04-24 21:45 45.39944 8.93623 7398 ft 265 kts 169°
2026-04-24 21:45 45.38157 8.94108 7186 ft 257 kts 169°
2026-04-24 21:46 45.36401 8.94583 6787 ft 258 kts 169°
2026-04-24 21:46 45.34634 8.95062 6380 ft 259 kts 169°
2026-04-24 21:46 45.32871 8.95540 6084 ft 256 kts 169°
2026-04-24 21:46 45.31155 8.96004 6070 ft 249 kts 169°
2026-04-24 21:47 45.29451 8.96466 6079 ft 251 kts 169°
2026-04-24 21:47 45.28301 8.96777 6073 ft 256 kts 169°
2026-04-24 21:47 45.25959 8.97414 6076 ft 260 kts 169°
2026-04-24 21:47 45.24187 8.97894 6062 ft 259 kts 169°
2026-04-24 21:48 45.22417 8.98374 6054 ft 259 kts 169°
2026-04-24 21:48 45.20654 8.98849 6065 ft 257 kts 169°
2026-04-24 21:48 45.18899 8.99318 6066 ft 256 kts 169°
2026-04-24 21:48 45.17151 8.99724 6000 ft 252 kts 179°
2026-04-24 21:49 45.15496 8.99094 5696 ft 249 kts 217°
2026-04-24 21:49 45.14446 8.97221 5254 ft 246 kts 252°
2026-04-24 21:49 45.14213 8.94880 4848 ft 244 kts 275°
2026-04-24 21:49 45.14607 8.92571 4551 ft 239 kts 294°
2026-04-24 21:50 45.15551 8.90702 4395 ft 234 kts 319°
2026-04-24 21:50 45.16807 8.89187 4310 ft 241 kts 319°
2026-04-24 21:50 45.18085 8.87595 4213 ft 246 kts 319°
2026-04-24 21:50 45.19362 8.85985 4116 ft 244 kts 319°
2026-04-24 21:51 45.20681 8.84529 4021 ft 238 kts 336°
2026-04-24 21:51 45.22273 8.84061 4035 ft 236 kts 358°
2026-04-24 21:51 45.23911 8.83921 4032 ft 243 kts 354°
2026-04-24 21:51 45.25593 8.83582 4030 ft 245 kts 351°
2026-04-24 21:52 45.27262 8.83160 4018 ft 243 kts 350°
2026-04-24 21:52 45.28917 8.82717 4003 ft 241 kts 349°
2026-04-24 21:52 45.30558 8.82270 4019 ft 239 kts 349°
2026-04-24 21:52 45.32184 8.81825 4006 ft 237 kts 349°
2026-04-24 21:53 45.33768 8.81391 3998 ft 226 kts 349°
2026-04-24 21:53 45.35261 8.80982 4053 ft 212 kts 349°
2026-04-24 21:53 45.36673 8.80595 4001 ft 203 kts 349°
2026-04-24 21:53 45.38054 8.80217 3992 ft 203 kts 349°
2026-04-24 21:54 45.39435 8.79840 3804 ft 206 kts 349°
2026-04-24 21:54 45.40843 8.79454 3578 ft 205 kts 349°
2026-04-24 21:54 45.42236 8.79072 3363 ft 203 kts 349°
2026-04-24 21:54 45.43603 8.78696 3131 ft 197 kts 349°
2026-04-24 21:55 45.44921 8.78335 3068 ft 190 kts 348°
2026-04-24 21:55 45.46204 8.77983 3054 ft 188 kts 348°
2026-04-24 21:55 45.47494 8.77628 3036 ft 189 kts 348°
2026-04-24 21:55 45.48795 8.77270 3038 ft 191 kts 349°
2026-04-24 21:56 45.50103 8.76910 3020 ft 193 kts 349°
2026-04-24 21:56 45.51442 8.76542 2744 ft 196 kts 348°
2026-04-24 21:56 45.52733 8.76187 2515 ft 187 kts 348°
2026-04-24 21:56 45.54012 8.75834 2249 ft 186 kts 348°
2026-04-24 21:57 45.55242 8.75496 2004 ft 173 kts 347°
2026-04-24 21:57 45.56378 8.75183 1795 ft 161 kts 347°
2026-04-24 21:57 45.57471 8.74880 1572 ft 159 kts 347°
2026-04-24 21:57 45.58554 8.74581 1356 ft 157 kts 348°
2026-04-24 21:58 45.59627 8.74285 1146 ft 157 kts 348°
2026-04-24 21:58 45.60690 8.73987 945 ft 156 kts 348°
2026-04-24 21:58 45.61746 8.73695 779 ft 153 kts 349°
2026-04-24 21:58 45.62713 8.73425 749 ft 127 kts 348°
2026-04-24 21:59 45.63429 8.73234 747 ft 83 kts 349°
2026-04-24 21:59 45.63841 8.73123 747 ft 38 kts 349°
2026-04-24 21:59 45.64051 8.73066 747 ft 30 kts 349°
2026-04-24 21:59 45.64228 8.73015 745 ft 15 kts 345°
2026-04-24 22:00 45.64300 8.72928 750 ft 14 kts 308°
2026-04-24 22:00 45.64353 8.72812 752 ft 14 kts 304°
2026-04-24 22:00 45.64402 8.72708 751 ft 8 kts 303°
2026-04-24 22:00 45.64422 8.72682 752 ft 4 kts 329°
2026-04-24 22:01 45.64465 8.72645 752 ft 9 kts 308°
2026-04-24 22:01 45.64466 8.72575 754 ft 10 kts 262°
2026-04-24 22:01 45.64453 8.72442 752 ft 15 kts 260°
2026-04-24 22:01 45.64429 8.72288 755 ft 17 kts 258°
2026-04-24 22:02 45.64430 8.72190 752 ft 9 kts 294°
2026-04-24 22:02 45.64468 8.72116 751 ft 9 kts 308°
2026-04-24 22:02 45.64504 8.72035 752 ft 10 kts 289°
2026-04-24 22:02 45.64501 8.71917 749 ft 13 kts 258°
2026-04-24 22:03 45.64483 8.71788 747 ft 13 kts 259°
2026-04-24 22:03 45.64466 8.71688 750 ft 8 kts 241°
2026-04-24 22:03 45.64416 8.71659 752 ft 9 kts 175°
2026-04-24 22:03 45.64357 8.71673 752 ft 9 kts 168°
2026-04-24 22:04 45.64299 8.71689 755 ft 9 kts 170°
2026-04-24 22:04 45.64233 8.71707 751 ft 12 kts 169°
2026-04-24 22:04 45.64138 8.71733 752 ft 16 kts 169°
2026-04-24 22:04 45.64007 8.71770 752 ft 22 kts 169°
2026-04-24 22:05 45.63854 8.71810 754 ft 22 kts 169°
2026-04-24 22:05 45.63700 8.71853 752 ft 22 kts 168°
2026-04-24 22:05 45.63548 8.71894 753 ft 22 kts 169°
2026-04-24 22:05 45.63395 8.71936 753 ft 22 kts 169°
2026-04-24 22:06 45.63241 8.71979 753 ft 22 kts 169°
2026-04-24 22:06 45.63088 8.72022 752 ft 22 kts 169°
2026-04-24 22:06 45.62934 8.72062 752 ft 22 kts 170°
2026-04-24 22:06 45.62780 8.72105 754 ft 22 kts 169°
2026-04-24 22:07 45.62627 8.72147 756 ft 22 kts 169°
2026-04-24 22:07 45.62488 8.72186 753 ft 17 kts 169°
2026-04-24 22:07 45.62414 8.72206 754 ft 4 kts 174°
2026-04-24 22:07 45.62386 8.72192 751 ft 4 kts 213°
2026-04-24 22:08 45.62371 8.72153 756 ft 4 kts 256°
2026-04-24 22:08 45.62364 8.72105 754 ft 7 kts 258°
2026-04-24 22:08 45.62352 8.72023 754 ft 9 kts 259°
2026-04-24 22:08 45.62339 8.71951 757 ft 6 kts 240°
2026-04-24 22:09 45.62300 8.71929 754 ft 6 kts 182°
2026-04-24 22:09 45.62257 8.71938 753 ft 6 kts 168°
2026-04-24 22:09 45.62215 8.71950 753 ft 6 kts 169°
2026-04-24 22:09 45.62172 8.71962 753 ft 6 kts 169°
2026-04-24 22:10 45.62129 8.71973 753 ft 6 kts 169°
2026-04-24 22:10 45.62086 8.71986 755 ft 6 kts 169°
2026-04-24 22:10 45.62047 8.71990 756 ft 5 kts 192°
2026-04-24 22:10 45.62024 8.71954 753 ft 5 kts 248°
2026-04-24 22:11 45.62017 8.71904 754 ft 5 kts 259°
2026-04-24 22:11 45.62011 8.71859 754 ft 3 kts 259°
2026-04-24 22:11 45.62009 8.71846 753 ft 0 kts 259°